Location: Ahstedt
(52.2048°N, 10.1060°E)
Time: 23:16:51
(UTC+00:00)

Cosmos 2228 Rocket - Pass Details

Date: 18 January 2026
Orbit: 611 x 647 km, 82.5° (Epoch: 7 February)

Event Time Altitude Azimuth Distance (km) Brightness Sun altitude
Exits shadow 05:05:46 - 352° (N) 2,508 6.0 -19.7°
Reaches altitude 10° 05:07:03 10° 355° (N) 1,988 5.5 -19.5°
Maximum altitude 05:11:25 61° 76° (ENE) 698 3.5 -18.9°
Drops below altitude 10° 05:15:43 10° 158° (SSE) 1,966 6.0 -18.2°
Sets 05:17:57 0° 162° (SSE) 2,866 6.9 -17.9°
